I2HLY-3 Weather Reports


Display with metric or nautical units.
time (UTC)temp
F
wind
direction
speed
MPH
gust
MPH
rain 1hr
in
rain 24hr
in
rain mn
in
humidity
%
barometer
mb
20260901204731 71 82 0.0 0.0 0.00 0.00 0.00 86 1016.7
20260901203220 71 82 0.0 0.0 0.00 0.00 0.00 86 1016.6
20260901201720 71 82 0.0 0.0 0.00 0.00 0.00 84 1016.4
20260901200225 72 82 0.0 0.0 0.00 0.00 0.00 84 1016.3
20260901194738 72 82 0.0 1.0 0.00 0.00 0.00 82 1016.3
20260901193225 73 82 0.0 2.0 0.00 0.00 0.00 81 1016.1
20260901191733 73 82 0.0 0.0 0.00 0.00 0.00 79 1016.0
20260901190232 74 82 0.0 1.0 0.00 0.00 0.00 77 1015.7
20260901184731 75 82 0.0 1.0 0.00 0.00 0.00 76 1015.5
20260901183222 76 82 0.0 1.0 0.00 0.00 0.00 74 1015.5
20260901181721 77 82 0.0 1.0 0.00 0.00 0.00 71 1015.3
20260901180238 78 82 1.0 2.0 0.00 0.00 0.00 67 1015.2
20260901174731 81 82 0.0 1.0 0.00 0.00 0.00 61 1015.1
20260901173221 83 82 1.0 2.0 0.00 0.00 0.00 57 1015.0
20260901170238 84 71 2.0 6.0 0.00 0.00 0.00 53 1015.0
20260901164734 85 101 1.0 4.0 0.00 0.00 0.00 53 1015.0
20260901163225 85 99 0.0 6.0 0.00 0.00 0.00 53 1015.1
20260901160221 85 125 3.0 7.0 0.00 0.00 0.00 52 1015.0
20260901153229 85 86 3.0 8.0 0.00 0.00 0.00 52 1015.1
20260901151725 85 111 3.0 5.0 0.00 0.00 0.00 53 1015.2
20260901150230 85 128 3.0 9.0 0.00 0.00 0.00 53 1015.3
20260901144732 85 198 2.0 8.0 0.00 0.00 0.00 54 1015.4
20260901143229 85 75 5.0 10.0 0.00 0.00 0.00 52 1015.5
20260901141734 85 171 5.0 8.0 0.00 0.00 0.00 55 1015.6
20260901140223 85 136 3.0 8.0 0.00 0.00 0.00 53 1015.6
20260901134729 84 57 4.0 9.0 0.00 0.00 0.00 54 1015.6
20260901131739 83 78 4.0 8.0 0.00 0.00 0.00 55 1015.9
20260901130232 84 102 3.0 8.0 0.00 0.00 0.00 58 1016.1
20260901124735 84 174 2.0 8.0 0.00 0.00 0.00 57 1016.3
20260901123237 84 157 1.0 7.0 0.00 0.00 0.00 56 1016.4
20260901121730 84 142 3.0 6.0 0.00 0.00 0.00 57 1016.5
20260901114738 84 144 4.0 5.0 0.00 0.00 0.00 57 1016.5
20260901113228 83 74 5.0 9.0 0.00 0.00 0.00 58 1016.7
20260901110221 82 103 3.0 5.0 0.00 0.00 0.00 59 1016.8
20260901104731 83 67 2.0 6.0 0.00 0.00 0.00 60 1016.9
20260901103224 82 231 2.0 5.0 0.00 0.00 0.00 62 1017.0
20260901101720 80 99 3.0 6.0 0.00 0.00 0.00 65 1017.1
20260901100222 80 82 3.0 6.0 0.00 0.00 0.00 62 1017.1
20260901094727 80 111 1.0 3.0 0.00 0.00 0.00 69 1017.1
20260901093235 79 51 2.0 3.0 0.00 0.00 0.00 67 1017.1
20260901091720 79 88 2.0 3.0 0.00 0.00 0.00 71 1017.2
20260901090238 79 113 2.0 4.0 0.00 0.00 0.00 72 1017.1
20260901084727 79 138 2.0 5.0 0.00 0.00 0.00 67 1017.1
20260901083224 80 161 3.0 7.0 0.00 0.00 0.00 67 1017.0
20260901081734 78 165 4.0 11.0 0.00 0.00 0.00 70 1017.0
20260901080232 76 128 3.0 7.0 0.00 0.00 0.00 76 1016.9
20260901074735 75 80 2.0 5.0 0.00 0.00 0.00 78 1016.8
20260901071734 74 58 2.0 9.0 0.00 0.00 0.00 78 1016.7
20260901064723 75 76 3.0 9.0 0.00 0.00 0.00 77 1016.5
20260901063219 74 62 4.0 7.0 0.00 0.00 0.00 77 1016.4
20260901061721 73 45 1.0 5.0 0.00 0.00 0.00 79 1016.3
20260901060231 72 40 3.0 5.0 0.00 0.00 0.00 79 1016.1
20260901053235 71 19 3.0 9.0 0.00 0.00 0.00 80 1015.9
20260901051725 70 85 5.0 10.0 0.00 0.00 0.00 82 1015.6
20260901050237 68 84 3.0 8.0 0.00 0.00 0.00 91 1015.4
20260901044736 64 63 0.0 3.0 0.00 0.00 0.00 94 1015.0
20260901043231 63 335 0.0 0.0 0.00 0.00 0.00 94 1014.8
20260901041720 63 335 0.0 0.0 0.00 0.00 0.00 94 1014.6
20260901040228 63 335 0.0 2.0 0.00 0.00 0.00 93 1014.4
20260901034720 64 335 0.0 1.0 0.00 0.00 0.00 93 1014.3
20260901033234 64 335 0.0 1.0 0.00 0.00 0.00 93 1014.2
20260901031719 64 335 0.0 0.0 0.00 0.00 0.00 93 1013.9
20260901030228 64 334 0.0 0.0 0.00 0.00 0.00 92 1013.8
20260901024732 65 334 0.0 1.0 0.00 0.00 0.00 92 1013.8
20260901023218 65 335 1.0 3.0 0.00 0.00 0.00 92 1013.8
20260901021729 65 335 0.0 0.0 0.00 0.00 0.00 92 1013.7
20260901020228 65 335 0.0 0.0 0.00 0.00 0.00 92 1013.7
20260901014727 66 335 0.0 0.0 0.00 0.00 0.00 92 1013.6
20260901013222 66 334 1.0 3.0 0.00 0.00 0.00 92 1013.6
20260901011722 66 336 1.0 2.0 0.00 0.00 0.00 91 1013.6
20260901010236 66 336 0.0 3.0 0.00 0.00 0.00 91 1013.6
20260901004725 67 248 0.0 2.0 0.00 0.00 0.00 91 1013.5
20260901003232 67 248 0.0 2.0 0.00 0.00 0.00 91 1013.5
20260901001721 67 249 0.0 0.0 0.00 0.00 0.00 90 1013.5
20260901000229 67 248 0.0 1.0 0.00 0.00 0.00 90 1013.5
20260831234722 68 248 0.0 0.0 0.00 0.00 0.00 90 1013.4
20260831233228 68 248 0.0 0.0 0.00 0.00 0.00 89 1013.4
20260831231727 68 249 0.0 0.0 0.00 0.00 0.00 89 1013.3
20260831230228 69 248 0.0 0.0 0.00 0.00 0.00 88 1013.2
20260831224719 69 248 0.0 0.0 0.00 0.00 0.00 88 1013.2
20260831223233 69 249 0.0 1.0 0.00 0.00 0.00 86 1013.1
20260831221724 70 248 0.0 2.0 0.00 0.00 0.00 85 1013.0
20260831220228 70 248 0.0 0.0 0.00 0.00 0.00 84 1012.9
20260831214732 71 248 0.0 0.0 0.00 0.00 0.00 82 1012.9
20260831213234 72 248 0.0 1.0 0.00 0.00 0.00 82 1012.8
20260831211737 72 248 1.0 4.0 0.00 0.00 0.00 80 1012.6
20260831210224 73 306 1.0 2.0 0.00 0.00 0.00 77 1012.6